User: anonymous   Login
Location: Unspecified
(0.0000°N, 0.0000°E)
Time: 16:08:02
(UTC+00:00)
Language:

Milstar DFS 1 - Orbit

View from above orbital plane
View from above orbital plane
View from above satellite
View from above satellite

Ground track
Ground track

The orbit data is extracted from the following two-line orbital elements,

1 22988U 94009A   19325.19124576 -.00000264  00000-0  00000+0 0  9998
2 22988  13.7961  53.4807 0002703 188.7972 207.6678  1.00269270  7582
Epoch (UTC): 21 November 2019 04:35:23
Eccentricity: 0.0002703
inclination: 13.7961°
perigee height: 35775 km
apogee height: 35798 km
right ascension of ascending node: 53.4807°
argument of perigee: 188.7972°
revolutions per day: 1.00269270
mean anomaly at epoch: 207.6678°
orbit number at epoch: 758

The dashed part of the orbit path shows where the satellite is in the earth's shadow,  

DLR